Dewpoint
41 43 41 40 39 42 40 45 39 40 44 40 46 51 50 52 49 50 49 49 50 52 53 56 57 56 58 57 57 58 58 59 61 61 62 63 63 64 66 67 67 68 69 69
42 44 44 38 41 40 41 46 40 42 44 52 52 54 52 50 48 46 47 49 52 55 55 54 55 55 57 57 57 56 57 58 60 59 59 60 61 62 64 64 65 66 67 67
39 45 40 35 35 41 43 43 47 43 44 50 52 54 51 47 45 46 48 53 53 53 53 55 55 55 56 56 55 55 55 57 58 58 58 58 59 60 60 61 63 64 65 66
41 40 33 36 42 40 39 44 47 48 47 47 48 48 47 46 47 48 53 51 50 49 50 55 54 54 54 54 54 54 55 56 56 56 56 57 57 57 58 59 59 61 63 64
39 37 32 32 41 40 34 37 46 48 46 46 47 46 46 49 48 50 50 49 48 50 53 53 53 53 53 53 53 54 54 54 55 55 55 55 55 56 57 57 57 58 61 64
33 30 28 31 33 43 36 36 45 45 45 44 44 41 43 47 48 47 48 48 49 52 52 52 52 52 52 52 52 53 54 54 55 54 53 54 54 56 56 56 56 58 59 60
33 31 34 39 39 36 28 35 44 45 45 44 44 44 45 47 45 45 48 51 52 52 52 52 51 51 51 51 51 53 54 54 54 54 53 53 53 55 55 57 57 57 59 60
38 33 34 45 43 36 43 46 47 46 45 43 43 46 46 44 43 49 49 50 51 52 52 51 52 52 50 50 52 53 53 53 53 53 54 54 53 54 54 55 56 57 58 59
41 41 45 48 47 47 45 45 47 45 44 43 44 45 44 43 48 49 49 50 51 51 50 51 51 50 50 51 52 52 52 52 52 53 53 53 53 53 54 57 57 57 58 58
41 43 43 45 48 48 47 47 46 44 43 43 43 42 41 45 48 49 50 51 51 50 49 48 49 49 49 50 51 52 52 52 52 53 53 54 54 54 56 58 59 59 58 58
42 45 46 47 47 46 45 45 45 45 44 43 41 40 44 47 48 49 50 51 51 49 49 48 49 49 50 51 52 51 52 53 52 52 53 54 55 57 58 59 57 57 56 56
40 46 45 46 48 47 45 44 44 43 42 42 40 39 45 47 46 48 48 50 50 49 48 48 48 49 50 52 52 52 52 51 51 51 52 54 55 56 54 53 49 48 47 49
47 48 47 49 49 50 48 46 46 44 41 38 39 40 45 41 41 45 47 48 50 49 49 48 48 48 50 50 52 53 52 51 50 51 51 51 53 54 54 54 50 48 46 46
47 45 46 49 50 50 47 46 46 42 40 38 38 39 38 40 42 41 42 42 51 50 48 47 47 48 50 50 50 51 52 51 50 51 51 51 51 53 52 53 52 53 48 46
45 46 45 50 47 46 44 43 39 38 39 39 39 39 41 41 40 40 41 40 44 44 45 44 44 45 50 49 48 49 49 51 50 48 49 49 48 48 48 49 50 51 47 46
43 47 50 48 47 46 44 41 38 37 38 39 41 41 41 42 41 41 42 42 40 42 43 42 43 43 47 49 48 48 48 51 50 48 47 48 48 47 46 46 46 47 46 44
45 47 49 50 48 47 45 44 42 41 39 40 42 42 41 43 43 42 40 41 41 43 43 41 39 42 44 49 48 49 48 47 48 46 45 46 45 45 44 44 43 43 43 43
47 47 48 50 51 49 48 48 46 45 41 41 44 43 42 44 43 43 44 42 42 41 43 42 40 40 43 49 47 47 48 47 46 45 45 45 44 44 43 43 42 42 42 42
49 48 49 49 52 52 51 49 46 43 43 45 44 43 43 44 45 45 45 45 43 41 43 44 46 45 41 41 51 46 46 47 46 45 45 45 44 43 43 42 41 41 42 42
51 54 53 53 53 52 50 50 47 46 43 46 45 45 45 47 48 46 46 45 46 46 46 43 44 41 38 40 49 43 44 46 46 45 44 43 43 43 43 41 41 41 42 41
52 53 53 51 50 50 49 48 49 48 47 45 47 46 46 45 50 50 47 47 48 49 46 48 44 42 39 43 44 43 44 44 45 45 44 43 43 42 41 42 42 42 42 42
53 52 51 51 50 48 48 47 46 46 49 48 48 47 48 48 48 50 50 49 49 51 49 45 45 46 41 48 41 43 45 42 43 45 45 44 43 43 42 42 42 43 42 42
54 54 54 53 53 52 52 50 47 47 47 49 50 50 50 49 50 51 51 51 52 52 49 46 48 51 50 45 43 45 46 44 42 41 42 43 44 45 44 43 43 43 43 42
52 52 51 51 50 49 49 51 53 52 50 50 51 51 51 50 51 52 52 51 51 52 51 48 48 51 49 44 45 47 47 45 44 42 42 42 43 43 45 43 44 43 43 43
55 53 52 50 50 50 51 53 54 56 56 56 55 55 55 56 52 50 52 51 50 51 51 50 51 50 46 44 46 48 49 48 47 45 42 42 42 42 43 45 45 44 44 45
54 53 52 52 50 50 50 53 52 54 54 55 56 56 56 58 57 55 53 51 50 50 52 50 49 48 46 46 46 47 50 51 49 48 44 42 43 44 43 44 46 45 45 45
53 51 53 52 51 50 50 51 52 53 54 55 54 54 55 56 55 54 52 51 52 51 51 51 49 48 47 46 46 46 49 50 48 48 44 42 43 44 43 44 43 46 45 45
Lifted_Index
-0 -0 0 0 1 1 1 1 1 1 1 1 1 0 -0 -0 0 1 1 3 4 4 5 5 6 6 6 6 7 7 7 7 6 6 6 6 6 5 3 2 1 -0 -2 -2
-0 -0 -0 0 1 1 1 1 1 0 0 0 0 0 -0 0 1 2 2 3 4 5 5 6 6 6 6 7 7 8 8 7 7 7 7 7 7 6 4 3 1 0 -1 -1
-0 -0 0 0 1 1 1 1 0 0 0 -0 -0 -1 -0 1 2 3 3 4 5 6 6 6 7 7 7 8 8 8 9 8 8 8 8 8 7 7 6 4 3 2 1 0
-0 0 1 1 1 1 1 1 0 -0 -0 -1 -1 -1 -0 1 3 3 3 4 5 6 7 7 7 8 8 8 9 9 9 8 8 9 9 8 8 8 7 6 4 3 2 2
0 1 1 1 1 0 1 1 0 -0 -1 -2 -1 -1 0 2 3 3 3 4 5 7 7 8 8 8 8 9 9 8 8 8 8 8 8 8 8 8 8 7 6 5 3 3
1 1 1 1 1 0 1 1 0 -1 -1 -1 -0 0 1 2 3 3 4 4 6 7 7 8 8 9 9 9 9 8 8 8 8 8 7 7 7 7 7 7 6 6 4 4
0 1 1 1 0 0 0 0 -0 -1 -1 0 1 2 2 3 4 4 4 5 6 7 8 8 9 9 9 9 8 8 8 8 8 7 6 6 6 6 6 5 5 5 5 4
-0 0 1 0 0 0 -0 -0 -0 -0 0 1 2 3 3 4 4 5 5 6 7 7 8 9 10 10 9 9 8 8 8 7 6 6 5 5 5 5 4 4 4 4 4 4
-0 0 0 0 0 0 -0 -0 -0 0 1 2 3 4 4 5 5 6 6 7 7 8 9 10 10 10 10 9 8 8 7 6 5 5 5 4 4 4 4 4 4 4 3 3
0 0 1 1 1 1 0 0 1 1 2 3 4 5 5 5 6 6 7 7 7 8 9 10 11 10 10 9 8 7 6 5 4 4 4 4 4 3 3 3 3 3 3 3
1 1 1 1 1 1 1 1 1 2 3 4 5 6 6 6 7 7 7 7 8 8 9 10 11 10 9 8 7 6 5 5 4 4 4 4 4 3 3 3 2 2 2 2
1 1 1 1 1 1 1 1 2 3 4 5 6 7 7 8 8 8 8 8 8 8 9 10 10 10 10 9 7 6 5 5 4 4 4 4 4 4 3 3 2 2 2 2
1 1 1 1 2 2 2 2 2 2 4 5 7 8 9 9 10 10 9 9 8 8 9 10 10 10 10 9 8 7 6 5 5 5 4 4 4 4 4 3 3 2 2 2
1 1 1 1 2 2 2 2 2 3 4 6 7 8 9 10 10 10 10 10 9 9 10 10 10 10 9 9 8 8 7 7 6 6 6 5 5 4 4 4 4 3 3 3
2 2 2 2 2 2 2 2 3 3 5 6 7 8 9 9 10 10 10 11 10 10 11 11 11 10 9 8 8 8 8 8 8 7 7 7 6 6 5 5 5 4 5 5
2 2 2 2 2 2 2 2 3 4 5 6 7 7 8 8 9 9 10 10 10 11 11 11 12 11 9 8 8 8 8 8 8 9 9 8 8 8 7 7 6 6 6 6
2 2 2 2 2 2 2 2 3 4 5 5 6 7 7 8 8 8 8 9 9 10 10 10 11 11 9 8 7 7 7 8 8 9 9 10 10 10 10 10 10 9 9 9
2 2 2 2 2 2 2 2 3 3 4 4 5 6 6 7 7 7 7 7 7 8 8 9 9 10 10 8 7 7 7 7 8 8 9 10 11 11 12 12 12 12 12 12
2 2 2 2 2 2 2 3 3 3 3 4 4 5 6 6 6 6 6 6 6 6 6 7 7 8 9 8 7 7 7 7 7 8 8 9 10 10 11 12 12 13 13 14
2 2 2 2 2 2 2 3 3 3 3 4 4 4 5 5 6 5 5 5 5 5 5 5 5 6 7 8 7 7 7 7 7 7 8 8 8 9 10 10 11 12 13 13
2 2 2 2 2 2 3 3 4 4 4 4 4 4 4 5 5 5 4 4 4 4 4 4 4 4 5 6 7 7 7 7 7 7 7 8 8 8 9 9 10 10 11 12
2 2 2 2 2 3 3 3 4 4 4 4 4 4 4 4 4 4 3 3 3 2 2 2 2 3 4 5 6 6 6 6 7 7 7 7 7 8 8 9 9 9 10 11
3 3 3 3 3 3 3 3 3 3 3 3 3 3 3 3 3 3 3 2 2 1 1 2 2 2 3 4 5 5 5 6 6 7 7 7 7 7 8 8 8 9 9 10
3 3 3 3 3 3 3 3 3 3 3 3 3 3 2 2 2 2 2 2 1 1 1 1 1 2 2 3 4 4 5 5 6 6 6 7 7 7 7 7 8 8 8 9
2 3 3 4 4 4 4 4 3 3 3 3 3 2 2 1 1 1 1 1 1 1 1 1 1 1 2 2 3 4 5 5 5 5 5 6 6 6 7 7 7 7 7 8
2 2 3 3 4 4 4 4 4 4 3 3 3 3 2 1 0 0 1 1 1 1 1 1 1 1 2 2 3 3 4 4 4 4 4 5 5 6 6 6 6 6 7 7
3 3 2 3 4 4 4 4 4 4 4 4 4 4 2 1 1 1 1 1 1 0 0 1 1 1 2 2 3 3 4 4 4 4 4 5 5 5 5 5 6 6 6 7